TimeCST,TemperatureF,Dew PointF,Humidity,Sea Level PressureIn,VisibilityMPH,Wind Direction,Wind SpeedMPH,Gust SpeedMPH,PrecipitationIn,Events,Conditions,WindDirDegrees,DateUTC
12:53 AM,24.1,19.9,84,30.52,10.0,Calm,Calm,-,N/A,,Clear,0,2013-01-18 06:53:00
1:53 AM,23.0,19.9,88,30.52,10.0,Calm,Calm,-,N/A,,Clear,0,2013-01-18 07:53:00
2:53 AM,21.9,19.0,89,30.52,10.0,Calm,Calm,-,N/A,,Clear,0,2013-01-18 08:53:00
3:53 AM,21.9,19.0,89,30.52,10.0,Calm,Calm,-,N/A,,Clear,0,2013-01-18 09:53:00
4:53 AM,21.9,19.0,89,30.51,10.0,Calm,Calm,-,N/A,,Clear,0,2013-01-18 10:53:00
5:53 AM,21.9,18.0,85,30.50,10.0,Calm,Calm,-,N/A,,Clear,0,2013-01-18 11:53:00
6:53 AM,25.0,18.0,75,30.49,10.0,Calm,Calm,-,N/A,,Clear,0,2013-01-18 12:53:00
7:53 AM,26.1,19.0,75,30.49,10.0,SSW,3.5,-,N/A,,Clear,200,2013-01-18 13:53:00
8:53 AM,33.1,21.0,61,30.49,10.0,South,4.6,-,N/A,,Clear,190,2013-01-18 14:53:00
9:53 AM,37.0,21.9,54,30.47,10.0,South,9.2,-,N/A,,Clear,190,2013-01-18 15:53:00
10:53 AM,41.0,23.0,49,30.44,10.0,SSW,6.9,-,N/A,,Clear,200,2013-01-18 16:53:00
11:53 AM,44.1,24.1,45,30.38,10.0,South,12.7,-,N/A,,Clear,170,2013-01-18 17:53:00
12:53 PM,46.9,27.0,46,30.33,10.0,South,11.5,-,N/A,,Clear,170,2013-01-18 18:53:00
1:53 PM,50.0,27.0,41,30.29,10.0,SSE,10.4,-,N/A,,Clear,160,2013-01-18 19:53:00
2:53 PM,52.0,26.1,37,30.25,10.0,SSE,11.5,-,N/A,,Clear,160,2013-01-18 20:53:00
3:53 PM,51.1,26.1,38,30.23,10.0,South,11.5,-,N/A,,Clear,170,2013-01-18 21:53:00
4:53 PM,48.9,26.1,41,30.21,10.0,South,9.2,-,N/A,,Clear,180,2013-01-18 22:53:00
5:53 PM,46.0,26.1,46,30.22,10.0,South,10.4,-,N/A,,Clear,170,2013-01-18 23:53:00
6:53 PM,45.0,25.0,46,30.21,10.0,South,11.5,-,N/A,,Clear,170,2013-01-19 00:53:00
7:53 PM,42.1,26.1,53,30.20,10.0,South,8.1,-,N/A,,Clear,180,2013-01-19 01:53:00
8:53 PM,39.9,26.1,58,30.18,10.0,South,5.8,-,N/A,,Clear,180,2013-01-19 02:53:00
9:53 PM,42.1,27.0,55,30.17,10.0,South,8.1,16.1,N/A,,Clear,190,2013-01-19 03:53:00
10:53 PM,43.0,28.0,56,30.16,10.0,SSW,9.2,18.4,N/A,,Clear,200,2013-01-19 04:53:00